Dewpoint
62 63 63 64 65 64 64 63 62 61 61 61 61 61 61 61 62 61 61 62 62 60 60 60 59 58 58 58 58 58 57 57 57 56 55 56 57 57 56 55 54 54 55 56 57 57 56 55 54 54 51 48
61 62 62 63 63 64 62 62 62 62 61 61 61 61 61 60 60 61 61 60 60 61 59 58 58 59 59 58 58 58 58 57 57 56 56 56 56 55 54 54 54 54 55 55 56 55 56 55 54 53 51 47
61 60 61 61 62 61 61 61 61 61 61 62 61 61 59 59 59 60 60 60 60 60 59 59 58 58 59 59 59 59 58 58 57 57 57 56 56 55 54 53 54 54 54 54 55 55 55 53 53 51 49 47
59 60 60 60 61 60 60 60 60 61 60 59 59 58 58 58 58 59 58 58 58 60 59 58 58 58 59 59 59 59 59 58 57 58 57 56 55 54 53 52 53 53 54 55 55 54 54 52 51 46 46 46
59 60 59 60 59 59 59 59 59 59 59 58 58 57 57 57 58 58 57 55 55 59 57 56 56 57 58 58 58 58 58 57 58 57 56 55 55 53 52 50 52 54 54 54 54 53 51 49 45 46 46 47
59 58 58 60 60 60 59 58 58 58 58 56 58 57 57 57 56 56 57 56 55 57 55 55 55 55 56 56 56 56 57 56 56 56 56 55 54 51 48 45 38 48 52 52 52 50 48 44 45 45 46 47
57 59 60 60 60 59 59 58 57 58 57 57 57 57 57 55 54 55 55 55 55 54 54 53 54 54 56 56 56 55 55 56 54 54 55 54 52 50 45 34 36 38 41 44 48 48 43 43 44 44 45 45
56 57 58 59 59 59 59 59 58 58 57 57 57 56 55 53 52 52 52 52 51 51 53 53 54 54 54 54 55 54 54 55 54 53 54 51 50 47 36 30 31 33 35 35 37 39 41 42 44 44 44 44
56 57 57 57 58 59 59 58 57 57 56 55 55 55 54 52 52 51 51 51 51 51 51 51 52 52 53 52 51 52 48 49 50 49 47 45 37 29 31 30 29 32 33 34 36 37 39 41 42 43 43 44
57 56 56 55 57 56 56 58 57 56 55 54 54 53 52 52 52 51 51 50 50 50 50 49 49 49 49 50 50 49 48 47 43 38 34 31 29 29 30 28 29 31 33 32 34 36 38 40 41 43 43 44
57 57 56 55 54 54 55 56 56 55 55 54 53 52 52 52 52 51 51 50 50 50 49 48 47 47 47 48 48 48 47 42 37 31 28 27 28 29 29 31 32 32 32 33 34 36 37 39 41 42 43 43
56 56 55 54 52 52 53 53 54 54 55 53 53 52 52 52 52 52 51 51 51 50 49 48 47 46 46 46 46 46 45 38 31 27 27 27 27 27 28 29 31 32 32 33 34 36 37 39 40 41 42 43
51 54 56 54 53 52 52 52 53 53 52 53 52 52 52 52 52 51 51 50 51 49 49 48 47 47 45 45 45 45 42 36 28 25 26 26 25 26 26 26 29 30 31 32 34 35 37 38 39 40 41 42
48 49 52 55 54 54 52 52 52 52 52 52 52 53 52 52 52 51 51 50 50 50 49 48 47 47 45 44 44 44 40 35 27 24 25 25 24 23 25 24 28 29 29 30 33 34 36 38 39 39 41 42
45 47 49 51 54 54 53 52 51 52 51 51 51 51 51 51 51 52 51 50 50 50 49 48 47 47 46 45 43 43 40 32 25 23 24 24 23 23 22 24 26 28 26 28 29 33 35 36 36 37 39 40
41 45 47 48 51 54 53 52 51 51 51 50 51 50 50 50 51 50 50 50 49 49 49 48 47 47 46 46 45 43 39 30 24 23 23 24 24 24 24 24 23 26 25 27 26 29 32 34 36 37 39 40
36 42 45 46 48 50 52 52 52 51 51 51 50 50 50 49 49 49 50 50 49 48 48 48 47 46 46 46 45 42 39 30 23 24 24 25 25 23 23 23 23 27 24 24 24 25 28 32 35 36 38 39
30 37 42 45 45 46 48 51 52 51 51 51 50 50 49 49 49 49 48 48 48 48 48 47 47 46 46 45 44 42 37 29 22 22 23 23 22 25 22 21 24 23 22 22 22 23 24 28 32 34 36 37
26 31 39 42 43 44 44 46 47 49 51 50 50 49 49 48 48 48 48 47 47 47 47 47 46 46 45 44 43 39 36 29 23 21 21 23 20 23 21 22 25 22 22 22 21 21 23 25 27 32 35 35
25 25 33 39 42 42 42 42 42 44 46 47 48 49 49 48 47 48 47 47 47 47 46 46 46 46 45 43 43 41 34 28 24 22 24 23 21 20 20 22 22 23 21 22 22 23 24 23 28 29 31 33
26 25 27 34 39 39 41 41 41 41 42 42 43 44 46 48 48 47 47 47 47 46 46 45 45 45 44 43 42 41 36 29 29 23 25 22 22 19 18 20 20 21 21 22 21 23 21 22 26 28 30 32
25 28 25 29 35 38 38 39 40 40 40 40 41 41 42 43 45 47 47 46 46 46 46 45 45 44 44 43 42 41 39 35 30 27 25 21 23 20 19 18 18 19 21 25 24 20 20 20 21 23 27 31
21 27 28 26 28 35 35 36 38 38 38 38 39 39 39 40 41 43 45 46 46 46 46 45 45 44 43 43 41 40 38 37 35 33 27 24 22 23 22 19 20 19 22 25 23 21 19 18 19 19 22 29
17 20 24 27 26 29 32 33 36 36 36 37 37 37 38 38 39 40 42 43 45 45 45 44 44 44 43 42 41 40 38 37 36 34 32 32 29 26 22 22 21 20 21 22 19 22 19 19 19 17 24 22
15 16 18 22 21 23 30 30 32 32 34 34 35 35 35 36 37 38 39 40 41 43 45 45 44 43 42 42 41 40 40 38 36 36 35 35 34 32 29 26 22 21 20 18 15 18 17 17 21 28 26 22
14 15 16 18 19 20 25 25 26 27 28 31 32 33 33 35 35 36 37 38 39 40 41 43 43 42 42 41 41 41 39 38 37 36 35 34 32 32 32 30 31 29 19 15 12 9 9 15 15 20 22 18
13 14 15 17 17 17 19 20 20 24 22 24 26 29 31 32 33 34 35 35 35 36 37 39 41 42 41 40 39 39 38 38 36 36 35 34 33 32 30 30 30 30 30 16 18 16 10 4 4 9 15 15
14 15 14 16 18 17 17 16 18 18 17 17 18 19 23 27 30 32 33 34 34 34 34 35 36 38 40 40 39 38 38 37 36 36 35 34 34 33 30 30 30 31 26 20 15 12 7 9 5 1 -1 5
14 14 12 12 14 16 16 16 16 16 16 15 17 17 18 19 23 27 30 31 32 33 33 34 34 35 36 38 38 38 37 37 36 36 35 35 34 33 33 31 31 30 31 22 20 16 12 18 13 12 4 8
14 12 11 11 11 11 11 12 14 15 15 15 14 15 16 17 18 20 22 25 28 29 30 32 33 34 34 35 36 38 37 37 35 35 35 35 35 33 34 33 31 30 31 28 22 20 17 17 17 10 6 3
15 12 11 11 11 12 11 12 13 15 16 16 16 16 15 16 17 17 17 19 20 24 25 28 30 31 33 33 34 35 35 35 35 35 35 36 34 34 34 32 31 30 30 30 26 24 21 22 22 12 7 6